National Oceanic Atmosphere Administration National Weather Service Headquarters National Weather Service Headquarters
NOAA logo WFO Anchorage Scalable transition graphic NWS logo
Transition from title bar to navgation bar   Aviation Weather 16 AKDT 
blankspace Home   |   Mobile   |   Social Media   |   Mesonet   |   Surface Map   |   Radar   |   Submit Storm Reports =00 GMT 

LocalForecast by City, St or Zip Code

spacer

Forecasts/Products
  Public
  Forecast Discussion
    - With Glossary
  Aviation
  Marine
  Hydrology(RFC)
  Rivers & Lakes AHPS
  Ice Desk
  TV Weather
  Fire Weather
  Avalanche
  Travel 511
  Graphical
  xml logo RSS Feeds
  Marine FTPMail

spacer

Data
  Mesonet
  Model Graphics
  Local Model
  Observations
  Marine Obs
  Satellite/Radar
  Vent Factor
  Soaring Index
  Weather Links

spacer

Climate
  PAFC Climate
  Interactive Climate
  PAFC Records
  Local
  National
  More

spacer

Outreach
  About Us
  Community Outreach
  Kids' Page
  Tour/Speaker Request
  Weather Classroom
  Social Media

spacer

Reports
  COOP Observers
  Local Storm Reports
  Spotter Page
  Submit a Storm Report

spacer

Miscellaneous
  Archived Alaska Weather Stories
  Student Career Opportunities
  Research Papers

spacer

Print Friendly/
Low Bandwidth

  Public Forecasts
  Marine Forecasts

spacer

Contact Us
  mailto pafcweb

spacer

Facebook Follow the National Weather Service in Alaska on Twitter
USA.gov is the U.S. government's official web portal to all federal, state and local government web resources and services.


 ICAO ID:   AAWU Graphics

Internet access to TAFs and METAR observations is for planning purposes only. We can not guarantee the timeliness of internet products. Before flying please get a formal pilot briefing (1-800-992-7433) and ALWAYS file a Flight Plan!Pilot briefings are provided to licensed aircraft pilots, ONLY! Others may not use the above number to obtain weather information.

Check out the Key to TAFs and METARs for help with decoding the information.

A 12 hour summary of TAFs can be found here.

PAKN TAF
PAKN 302321Z 3100/3124  36008KT P6SM FEW120 BKN240=


METAR PAKN 302354Z VRB04KT 10SM SCT240 14/03 A2957 RMK AO2 SLP014
     T01390033 10139 20067 58006=
METAR PAKN 302354Z VRB04KT 10SM SCT240 14/03 A2957=
METAR PAKN 302254Z 34007KT 10SM FEW130 BKN240 12/02 A2958 RMK AO2 SLP016
     T01220022=
METAR PAKN 302254Z 34007KT 10SM FEW130 BKN240 12/02 A2958=
METAR PAKN 302154Z 36007KT 10SM FEW130 BKN240 12/03 A2959 RMK AO2
    SLP020 T01170028=
METAR PAKN 302154Z 36007KT 10SM FEW130 BKN240 12/03 A2959=
METAR PAKN 302054Z 32009KT 10SM SCT130 BKN240 11/03 A2959 RMK AO2
    SLP020 T01060028 58009=
METAR PAKN 302054Z 32009KT 10SM SCT130 BKN240 11/03 A2959=


National Weather Service
Anchorage Forecast Office
6930 Sand Lake Road
Anchorage, Ak 99502
(907) 266-5105 M-F/7-5pm
About Us
Career Opportunities
Glossary
Disclaimer
Privacy Policy
Credits
Alaska Weather Information Line:
1-800-472-0391